W8SZ Weather Reports


time (UTC)temp
F
wind
direction
speed
knots
gust
knots
rain 1hr
in
rain 24hr
in
rain mn
in
humidity
%
barometer
mb
20180120025345 34 265 6.1 20.9 0.00 0.00 0.00 77 998.6
20180120024852 34 269 7.0 13.9 0.00 0.00 0.00 78 998.9
20180120024338 34 231 7.0 15.6 0.00 0.00 0.00 77 998.6
20180120023849 34 221 6.1 15.6 0.00 0.00 0.00 77 998.5
20180120023357 34 272 7.8 18.2 0.00 0.00 0.00 77 998.0
20180120022834 34 233 6.1 18.2 0.00 0.00 0.00 77 998.0
20180120022336 34 221 8.7 15.6 0.00 0.00 0.00 77 997.9
20180120021844 35 237 7.8 14.8 0.00 0.00 0.00 77 998.1
20180120021351 35 239 7.8 20.0 0.00 0.00 0.00 77 998.1
20180120020838 35 226 11.3 20.0 0.00 0.00 0.00 78 998.1
20180120020346 35 260 6.1 16.5 0.00 0.00 0.00 78 998.0
20180120015841 35 237 7.8 14.8 0.00 0.00 0.00 78 998.3
20180120015334 35 237 7.8 15.6 0.00 0.00 0.00 78 998.2
20180120014843 35 230 7.8 17.4 0.00 0.00 0.00 78 998.4
20180120014350 35 241 10.4 17.4 0.00 0.00 0.00 78 998.6
20180120013837 35 231 6.1 15.6 0.00 0.00 0.00 78 998.3
20180120013347 35 222 7.0 18.2 0.00 0.00 0.00 78 998.4
20180120012844 35 228 9.6 18.2 0.00 0.00 0.00 79 998.6
20180120012351 35 232 7.8 15.6 0.00 0.00 0.00 79 998.8
20180120011837 35 233 8.7 14.8 0.00 0.00 0.00 79 998.9
20180120011345 35 228 5.2 13.9 0.00 0.00 0.00 80 999.1
20180120010834 35 225 6.1 13.9 0.00 0.00 0.00 81 999.2
20180120010344 35 225 7.0 13.9 0.00 0.00 0.00 81 999.3
20180120005843 35 227 6.1 14.8 0.00 0.00 0.00 81 999.1
20180120005346 35 216 5.2 14.8 0.00 0.00 0.00 82 999.3
20180120004852 35 218 8.7 17.4 0.00 0.00 0.00 82 998.9
20180120004339 35 222 8.7 17.4 0.00 0.00 0.00 82 999.2
20180120003845 34 230 6.1 15.6 0.00 0.00 0.00 83 999.2
20180120003353 34 247 7.8 15.6 0.00 0.00 0.00 83 999.4
20180120002854 34 216 7.0 12.2 0.00 0.00 0.00 83 1000.0
20180120002337 34 216 5.2 13.9 0.00 0.00 0.00 84 999.6
20180120001844 34 226 8.7 13.9 0.00 0.00 0.00 84 999.7
20180120001351 34 209 6.1 13.0 0.00 0.00 0.00 86 999.5
20180120000836 34 211 6.1 13.0 0.00 0.00 0.00 86 999.6
20180120000401 34 216 7.0 13.9 0.00 0.00 0.00 87 999.2
20180119235840 34 211 8.7 14.8 0.00 0.00 0.00 88 999.6
20180119235348 34 211 10.4 14.8 0.00 0.00 0.00 89 999.9
20180119234836 34 211 8.7 13.9 0.00 0.00 0.00 89 999.8
20180119234341 34 212 8.7 13.9 0.00 0.00 0.00 89 1000.2
20180119233848 34 215 7.8 13.0 0.00 0.00 0.00 88 1000.3
20180119233355 34 214 9.6 13.9 0.00 0.00 0.00 88 1000.4
20180119232846 34 212 10.4 13.9 0.00 0.00 0.00 89 1000.5
20180119232353 34 208 11.3 12.2 0.00 0.00 0.00 89 1000.3
20180119231838 34 210 7.8 12.2 0.00 0.00 0.00 87 1000.8
20180119231344 34 210 8.7 12.2 0.00 0.00 0.00 86 1000.9
20180119230849 35 211 7.8 12.2 0.00 0.00 0.00 86 1001.0
20180119230357 35 212 7.0 11.3 0.00 0.00 0.00 86 1001.0
20180119225834 35 212 7.0 10.4 0.00 0.00 0.00 86 1001.2
20180119225339 35 212 7.8 11.3 0.00 0.00 0.00 86 1001.1
20180119224844 35 212 7.0 12.2 0.00 0.00 0.00 85 1001.3
20180119224350 36 212 8.7 13.0 0.00 0.00 0.00 85 1001.0
20180119223836 36 213 7.8 13.0 0.00 0.00 0.00 84 1001.4
20180119223348 37 212 9.6 11.3 0.00 0.00 0.00 82 1001.4
20180119222845 37 220 6.1 10.4 0.00 0.00 0.00 82 1001.1
20180119222350 37 214 2.6 12.2 0.00 0.00 0.00 81 1001.1
20180119221837 37 206 5.2 12.2 0.00 0.00 0.00 81 1001.0
20180119221346 37 225 5.2 10.4 0.00 0.00 0.00 82 1001.2
20180119220856 37 224 3.5 13.9 0.00 0.00 0.00 81 1001.2
20180119220334 37 224 5.2 13.9 0.00 0.00 0.00 81 1001.5
20180119215841 37 229 7.0 11.3 0.00 0.00 0.00 80 1001.6
20180119215348 37 219 5.2 11.3 0.00 0.00 0.00 80 1001.9
20180119214835 37 220 5.2 13.0 0.00 0.00 0.00 80 1002.2
20180119214340 38 219 8.7 13.0 0.00 0.00 0.00 80 1001.8
20180119213846 38 219 5.2 10.4 0.00 0.00 0.00 80 1002.1
20180119213354 38 220 5.2 10.4 0.00 0.00 0.00 80 1001.8
20180119212832 38 221 4.3 13.0 0.00 0.00 0.00 80 1001.5
20180119212341 38 221 7.8 13.0 0.00 0.00 0.00 79 1002.0
20180119211846 38 222 4.3 12.2 0.00 0.00 0.00 79 1001.6
20180119211335 38 222 7.0 12.2 0.00 0.00 0.00 78 1001.8
20180119210841 38 227 7.0 12.2 0.00 0.00 0.00 78 1001.8
20180119210349 38 236 5.2 10.4 0.00 0.00 0.00 78 1001.6
20180119205847 38 231 6.1 13.9 0.00 0.00 0.00 77 1002.1
20180119205352 39 213 7.0 13.9 0.00 0.00 0.00 77 1002.0
20180119204838 39 252 6.1 16.5 0.00 0.00 0.00 77 1002.1
20180119204344 39 255 6.1 16.5 0.00 0.00 0.00 76 1002.1
20180119203851 39 240 7.0 12.2 0.00 0.00 0.00 76 1002.4
20180119203357 39 251 5.2 13.0 0.00 0.00 0.00 77 1002.2
20180119202835 38 210 7.8 13.0 0.00 0.00 0.00 77 1002.3
20180119202342 38 213 9.6 13.0 0.00 0.00 0.00 77 1002.4
20180119201847 38 220 6.1 12.2 0.00 0.00 0.00 78 1002.2
20180119201333 38 219 7.8 13.0 0.00 0.00 0.00 77 1002.0
20180119200839 38 217 8.7 13.0 0.00 0.00 0.00 78 1002.5
20180119200346 37 224 5.2 15.6 0.00 0.00 0.00 78 1002.0
20180119195845 37 220 8.7 15.6 0.00 0.00 0.00 78 1002.4
20180119195353 37 223 6.1 12.2 0.00 0.00 0.00 78 1002.2
20180119194842 37 225 7.0 12.2 0.00 0.00 0.00 78 1002.5
20180119194332 37 249 5.2 12.2 0.00 0.00 0.00 78 1002.9
20180119193902 37 218 5.2 13.0 0.00 0.00 0.00 79 1002.5
20180119193338 37 219 9.6 13.0 0.00 0.00 0.00 78 1002.7
20180119192851 37 213 3.5 13.0 0.00 0.00 0.00 79 1002.8
20180119192339 37 218 7.0 13.0 0.00 0.00 0.00 79 1002.8
20180119191846 36 231 6.1 13.0 0.00 0.00 0.00 79 1003.1
20180119191336 36 222 7.8 13.0 0.00 0.00 0.00 79 1003.0
20180119190842 36 220 7.8 11.3 0.00 0.00 0.00 79 1003.5
20180119190349 36 216 7.8 11.3 0.00 0.00 0.00 79 1003.5
20180119185842 36 215 5.2 11.3 0.00 0.00 0.00 79 1003.7
20180119185350 36 213 6.1 11.3 0.00 0.00 0.00 79 1003.9
20180119184841 36 224 7.0 11.3 0.00 0.00 0.00 79 1004.2
20180119184329 36 230 5.2 10.4 0.00 0.00 0.00 79 1004.2
20180119183842 35 233 4.3 12.2 0.00 0.00 0.00 79 1004.0
20180119183350 35 266 6.1 12.2 0.00 0.00 0.00 80 1004.4
20180119182846 35 233 6.1 10.4 0.00 0.00 0.00 80 1004.3
20180119182351 35 250 6.1 10.4 0.00 0.00 0.00 80 1004.1
20180119181839 35 224 4.3 8.7 0.00 0.00 0.00 80 1004.6
20180119181346 34 224 4.3 11.3 0.00 0.00 0.00 81 1004.1
20180119180843 34 229 7.0 13.0 0.00 0.00 0.00 81 1004.3
20180119180333 34 235 6.1 13.0 0.00 0.00 0.00 81 1004.4
20180119175843 34 212 7.8 13.0 0.00 0.00 0.00 81 1004.4
20180119175351 34 212 7.8 13.0 0.00 0.00 0.00 82 1004.2
20180119174839 34 221 6.1 10.4 0.00 0.00 0.00 82 1004.6
20180119174345 33 221 5.2 12.2 0.00 0.00 0.00 82 1004.9
20180119173836 33 222 5.2 13.0 0.00 0.00 0.00 82 1004.9
20180119173404 33 230 4.3 13.0 0.00 0.00 0.00 82 1004.9
20180119172839 33 227 6.1 12.2 0.00 0.00 0.00 82 1004.7
20180119172343 33 239 5.2 12.2 0.00 0.00 0.00 83 1005.2
20180119171847 33 244 6.1 13.0 0.00 0.00 0.00 83 1005.5
20180119171359 32 246 3.5 13.9 0.00 0.00 0.00 83 1005.5
20180119170848 32 266 6.1 13.9 0.00 0.00 0.00 84 1005.8
20180119170337 32 223 7.0 12.2 0.00 0.00 0.00 84 1005.6
20180119165848 31 213 5.2 11.3 0.00 0.00 0.00 84 1006.1
20180119165333 31 211 8.7 12.2 0.00 0.00 0.00 84 1006.3
20180119164839 31 213 7.8 12.2 0.00 0.00 0.00 84 1005.9
20180119164346 31 215 4.3 12.2 0.00 0.00 0.00 84 1006.5
20180119163832 31 217 8.7 12.2 0.00 0.00 0.00 85 1006.4
20180119163401 31 221 5.2 10.4 0.00 0.00 0.00 85 1006.7
20180119162837 30 215 5.2 10.4 0.00 0.00 0.00 86 1006.6
20180119162343 30 216 7.0 11.3 0.00 0.00 0.00 86 1006.5
20180119161849 30 213 4.3 11.3 0.00 0.00 0.00 87 1006.7
20180119161336 29 215 7.0 10.4 0.00 0.00 0.00 86 1007.0
20180119160846 29 214 5.2 10.4 0.00 0.00 0.00 86 1007.1
20180119160342 29 211 6.1 10.4 0.00 0.00 0.00 86 1007.0
20180119155844 29 205 6.1 9.6 0.00 0.00 0.00 86 1007.0
20180119155354 29 205 7.0 9.6 0.00 0.00 0.00 86 1007.4
20180119154835 29 205 4.3 11.3 0.00 0.00 0.00 87 1007.1
20180119154345 28 205 8.7 11.3 0.00 0.00 0.00 86 1007.0
20180119153850 28 211 7.0 11.3 0.00 0.00 0.00 87 1007.3
20180119153358 28 212 7.0 12.2 0.00 0.00 0.00 87 1007.1
20180119152836 28 213 7.0 12.2 0.00 0.00 0.00 87 1007.5
20180119152341 28 251 4.3 10.4 0.00 0.00 0.00 87 1007.4
20180119151846 27 252 5.2 10.4 0.00 0.00 0.00 88 1007.6
20180119151352 27 261 4.3 8.7 0.00 0.00 0.00 89 1007.2
20180119150839 26 262 4.3 7.8 0.00 0.00 0.00 89 1007.5
20180119150348 26 262 4.3 7.8 0.00 0.00 0.00 90 1007.7
20180119145845 25 262 5.2 7.8 0.00 0.00 0.00 91 1007.6
20180119145333 25 262 4.3 8.7 0.00 0.00 0.00 91 1007.7
20180119144841 25 262 5.2 8.7 0.00 0.00 0.00 91 1008.0
20180119144346 25 263 6.1 8.7 0.00 0.00 0.00 90 1007.6
20180119143853 25 264 5.2 7.8 0.00 0.00 0.00 91 1007.7
20180119143356 25 265 4.3 7.8 0.00 0.00 0.00 92 1007.6
20180119142852 25 265 4.3 8.7 0.00 0.00 0.00 92 1008.0
20180119142340 25 265 5.2 8.7 0.00 0.00 0.00 92 1008.5
20180119141846 24 266 6.1 8.7 0.00 0.00 0.00 93 1008.0
20180119140841 24 267 4.3 7.0 0.00 0.00 0.00 94 1008.3
20180119140348 24 267 3.5 6.1 0.00 0.00 0.00 94 1008.0
20180119135845 24 267 2.6 6.1 0.00 0.00 0.00 95 1008.1
20180119135352 24 267 2.6 7.0 0.00 0.00 0.00 96 1008.2
20180119134840 23 267 3.5 7.0 0.00 0.00 0.00 96 1008.1
20180119134348 23 267 2.6 5.2 0.00 0.00 0.00 96 1007.8
20180119133836 23 267 1.7 5.2 0.00 0.00 0.00 96 1008.0
20180119133343 23 267 2.6 6.1 0.00 0.00 0.00 96 1008.0
20180119132842 23 267 3.5 7.8 0.00 0.00 0.00 96 1007.7
20180119132349 23 267 2.6 7.8 0.00 0.00 0.00 96 1007.9
20180119131839 23 267 4.3 7.0 0.00 0.00 0.00 96 1008.0
20180119131350 23 267 2.6 7.8 0.00 0.00 0.00 96 1007.8
20180119130853 23 267 4.3 7.8 0.00 0.00 0.00 96 1007.7
20180119130341 23 267 3.5 8.7 0.00 0.00 0.00 96 1007.8
20180119125834 23 267 3.5 8.7 0.00 0.00 0.00 95 1007.9
20180119125340 23 267 2.6 7.8 0.00 0.00 0.00 95 1008.2
20180119124847 24 267 2.6 7.0 0.00 0.00 0.00 95 1007.9
20180119124332 24 267 3.5 8.7 0.00 0.00 0.00 95 1007.8
20180119123842 24 267 4.3 8.7 0.00 0.00 0.00 94 1008.2
20180119123349 24 268 3.5 6.1 0.00 0.00 0.00 95 1008.4
20180119122848 24 268 3.5 7.0 0.00 0.00 0.00 94 1008.5
20180119122335 24 268 3.5 7.0 0.00 0.00 0.00 94 1008.3
20180119121843 24 268 3.5 7.8 0.00 0.00 0.00 94 1008.0
20180119121351 24 268 3.5 7.8 0.00 0.00 0.00 94 1008.2
20180119120837 25 268 4.3 7.0 0.00 0.00 0.00 94 1008.3
20180119120347 25 268 2.6 7.0 0.00 0.00 0.00 94 1008.6
20180119115847 25 268 2.6 7.0 0.00 0.00 0.00 94 1008.5
20180119115334 25 268 4.3 7.8 0.00 0.00 0.00 94 1008.5
20180119114841 25 268 4.3 7.8 0.00 0.00 0.00 94 1008.3
20180119114349 25 268 3.5 7.8 0.00 0.00 0.00 94 1008.3
20180119113838 25 268 3.5 7.8 0.00 0.00 0.00 93 1008.4
20180119113345 25 268 3.5 6.1 0.00 0.00 0.00 93 1008.4
20180119112839 25 268 3.5 9.6 0.00 0.00 0.00 93 1008.4
20180119112347 25 268 4.3 9.6 0.00 0.00 0.00 93 1008.4
20180119111850 25 268 2.6 7.0 0.00 0.00 0.00 93 1008.2
20180119111339 25 268 2.6 6.1 0.00 0.00 0.00 93 1008.2
20180119110843 26 268 2.6 7.8 0.00 0.00 0.00 93 1008.0
20180119110348 26 268 3.5 7.8 0.00 0.00 0.00 93 1008.5
20180119105846 26 268 3.5 7.8 0.00 0.00 0.00 93 1008.5
20180119105348 26 268 4.3 7.8 0.00 0.00 0.00 93 1008.1
20180119104836 26 268 3.5 9.6 0.00 0.00 0.00 93 1008.2
20180119103850 26 268 2.6 11.3 0.00 0.00 0.00 93 1008.7
20180119103358 26 268 3.5 6.1 0.00 0.00 0.00 93 1007.9
20180119102836 26 268 2.6 7.0 0.00 0.00 0.00 93 1008.3
20180119102341 26 268 3.5 7.8 0.00 0.00 0.00 94 1008.4
20180119101852 26 268 4.3 7.8 0.00 0.00 0.00 94 1008.1
20180119101340 26 268 2.6 7.8 0.00 0.00 0.00 94 1008.3
20180119100844 26 268 2.6 7.0 0.00 0.00 0.00 93 1008.2
20180119100350 26 268 2.6 6.1 0.00 0.00 0.00 93 1008.2
20180119095847 26 268 2.6 6.1 0.00 0.00 0.00 93 1008.3
20180119095337 26 268 1.7 4.3 0.00 0.00 0.00 93 1008.1
20180119094844 27 268 3.5 4.3 0.00 0.00 0.00 93 1008.0
20180119094348 27 268 2.6 4.3 0.00 0.00 0.00 92 1008.2
20180119093835 27 268 0.9 4.3 0.00 0.00 0.00 92 1008.2
20180119093344 27 268 2.6 6.1 0.00 0.00 0.00 92 1008.3
20180119092842 28 268 2.6 8.7 0.00 0.00 0.00 91 1008.2
20180119092348 28 268 1.7 8.7 0.00 0.00 0.00 91 1008.1
20180119091835 28 268 0.9 6.1 0.00 0.00 0.00 91 1008.0
20180119091343 28 268 2.6 6.1 0.00 0.00 0.00 91 1008.4
20180119090849 28 268 1.7 7.0 0.00 0.00 0.00 91 1008.3
20180119090358 28 268 2.6 7.0 0.00 0.00 0.00 91 1008.4
20180119085852 28 268 2.6 5.2 0.00 0.00 0.00 91 1008.8
20180119085340 28 268 1.7 5.2 0.00 0.00 0.00 91 1008.9
20180119084845 28 268 2.6 5.2 0.00 0.00 0.00 91 1009.1
20180119084349 28 268 2.6 5.2 0.00 0.00 0.00 90 1009.2
20180119083834 29 268 2.6 6.1 0.00 0.00 0.00 91 1009.0
20180119083346 29 268 3.5 7.8 0.00 0.00 0.00 91 1009.3
20180119082844 29 268 3.5 7.8 0.00 0.00 0.00 91 1009.1
20180119082349 29 268 2.6 7.8 0.00 0.00 0.00 91 1009.0
20180119081838 29 268 2.6 9.6 0.00 0.00 0.00 91 1009.4
20180119081348 29 268 3.5 9.6 0.00 0.00 0.00 90 1009.2
20180119080852 29 268 2.6 8.7 0.00 0.00 0.00 91 1009.3
20180119080404 29 268 4.3 8.7 0.00 0.00 0.00 91 1009.2
20180119075841 29 268 1.7 4.3 0.00 0.00 0.00 91 1009.3
20180119075349 29 268 2.6 7.0 0.00 0.00 0.00 90 1008.7
20180119074838 29 268 2.6 7.0 0.00 0.00 0.00 90 1008.9
20180119074344 29 268 3.5 6.1 0.00 0.00 0.00 91 1008.8
20180119073835 29 268 2.6 6.1 0.00 0.00 0.00 91 1008.9
20180119073403 29 268 1.7 6.1 0.00 0.00 0.00 90 1009.0
20180119072840 29 268 2.6 5.2 0.00 0.00 0.00 90 1009.0
20180119072348 29 268 1.7 7.8 0.00 0.00 0.00 90 1008.9
20180119071837 29 268 0.9 7.8 0.00 0.00 0.00 90 1008.9
20180119071343 29 268 2.6 6.1 0.00 0.00 0.00 90 1008.8
20180119070844 29 268 2.6 6.1 0.00 0.00 0.00 90 1008.6
20180119070352 29 268 3.5 6.1 0.00 0.00 0.00 90 1008.4
20180119065847 29 268 2.6 7.0 0.00 0.00 0.00 90 1008.1
20180119065338 29 268 4.3 7.0 0.00 0.00 0.00 90 1008.1
20180119064844 29 268 2.6 4.3 0.00 0.00 0.00 90 1008.3
20180119064335 29 268 1.7 5.2 0.00 0.00 0.00 90 1008.6
20180119063842 29 268 2.6 5.2 0.00 0.00 0.00 90 1008.3
20180119063351 29 268 2.6 7.0 0.00 0.00 0.00 89 1008.4
20180119062849 29 268 4.3 7.0 0.00 0.00 0.00 90 1008.2
20180119062337 29 268 1.7 7.8 0.00 0.00 0.00 90 1008.5
20180119061849 29 268 2.6 7.8 0.00 0.00 0.00 90 1008.4
20180119061338 29 268 2.6 4.3 0.00 0.00 0.00 90 1008.7
20180119060845 29 268 2.6 5.2 0.00 0.00 0.00 90 1008.9
20180119060344 29 268 2.6 5.2 0.00 0.00 0.00 90 1009.1
20180119055835 29 268 0.9 4.3 0.00 0.00 0.00 90 1009.0
20180119055343 29 268 1.7 6.1 0.00 0.00 0.00 89 1008.9
20180119054848 29 268 2.6 6.1 0.00 0.00 0.00 89 1008.7
20180119054336 29 268 1.7 5.2 0.00 0.00 0.00 89 1008.4
20180119053845 29 268 3.5 7.8 0.00 0.00 0.00 88 1008.5
20180119053355 29 268 2.6 7.8 0.00 0.00 0.00 89 1008.6
20180119052852 29 269 2.6 6.1 0.00 0.00 0.00 89 1008.7
20180119052340 29 269 1.7 6.1 0.00 0.00 0.00 89 1008.9
20180119051847 29 269 2.6 6.1 0.00 0.00 0.00 88 1008.6
20180119051333 29 269 2.6 6.1 0.00 0.00 0.00 88 1008.9
20180119050842 29 269 1.7 6.1 0.00 0.00 0.00 88 1008.8
20180119050341 29 269 1.7 7.0 0.00 0.00 0.00 88 1008.8
20180119045849 29 269 2.6 7.0 0.00 0.00 0.00 89 1009.0
20180119045337 29 269 1.7 7.0 0.00 0.00 0.00 89 1008.7
20180119044844 29 269 2.6 6.1 0.00 0.00 0.00 89 1008.9
20180119044348 29 269 2.6 7.0 0.00 0.00 0.00 89 1008.6
20180119043839 29 269 1.7 7.8 0.00 0.00 0.00 89 1008.7
20180119043350 29 269 2.6 8.7 0.00 0.00 0.00 89 1008.6
20180119042845 29 270 3.5 10.4 0.00 0.00 0.00 89 1008.7
20180119042349 29 270 2.6 10.4 0.00 0.00 0.00 90 1008.8
20180119041836 29 269 3.5 8.7 0.00 0.00 0.00 90 1008.8
20180119041345 29 269 1.7 7.0 0.00 0.00 0.00 90 1008.6
20180119040854 29 269 1.7 7.0 0.00 0.00 0.00 90 1008.8
20180119040332 29 270 1.7 7.0 0.00 0.00 0.00 90 1008.5
20180119035840 28 270 1.7 7.8 0.00 0.00 0.00 90 1008.7
20180119035348 28 270 3.5 7.8 0.00 0.00 0.00 91 1008.5
20180119034841 28 270 1.7 5.2 0.00 0.00 0.00 91 1008.6
20180119034350 28 270 1.7 4.3 0.00 0.00 0.00 92 1008.5
20180119033856 28 270 2.6 4.3 0.00 0.00 0.00 92 1008.7
20180119033333 28 269 1.7 3.5 0.00 0.00 0.00 93 1008.5
20180119032846 27 269 1.7 5.2 0.00 0.00 0.00 93 1008.8
20180119032353 27 270 1.7 5.2 0.00 0.00 0.00 94 1008.7
20180119031840 27 270 1.7 5.2 0.00 0.00 0.00 93 1008.5
20180119031345 27 270 2.6 5.2 0.00 0.00 0.00 93 1008.9
20180119030855 27 270 0.9 2.6 0.00 0.00 0.00 93 1009.1
20180119030349 27 269 1.7 3.5 0.00 0.00 0.00 94 1008.6
20180119025838 27 270 0.9 4.3 0.00 0.00 0.00 94 1008.6